Imperial, NE

12:22 PM MDT on May 27, 2017 (GMT -0600)
Imperial Municipal

Weather History for KIML - April, 2014

Change the Weather History Date:

Saturday, April 19, 2014

  Actual Average Record
Temperature  
Mean Temperature 57 °F 49 °F  
Max Temperature 70 °F 63 °F 88 °F (1987)
Min Temperature 44 °F 36 °F 20 °F (1953)
Degree Days  
Heating Degree Days 8 16  
Month to date heating degree days 332 350  
Cooling Degree Days 0 0  
Month to date cooling degree days 0 0  
Year to date cooling degree days 0 0  
Growing Degree Days 7 (Base 50)    
Moisture  
Dew Point 42 °F    
Average Humidity 61    
Maximum Humidity 89    
Minimum Humidity 33    
Precipitation  
Precipitation 0.00 in 0.08 in 4.58 in (1971)
Sea Level Pressure  
Sea Level Pressure 29.93 in    
Wind  
Wind Speed 10 mph (ENE)    
Max Wind Speed 24 mph    
Max Gust Speed 30 mph    
Visibility 10 miles    
Events      
T = Trace of Precipitation, MM = Missing Value Source: NWS Daily Summary

Daily Weather History Graph

Daily Weather History Graph

Search for Another Location

Airport or City:

Trip Planner

Search our weather history database for the weather conditions in past years. The results will help you decide how hot, cold, wet, or windy it might be!

Date:

Astronomy

Apr. 19, 2014 Rise Set
Actual Time 6:01 AM MDT 7:29 PM MDT
Civil Twilight 5:33 AM MDT 7:58 PM MDT
Nautical Twilight 4:59 AM MDT 8:33 PM MDT
Astronomical Twilight 4:22 AM MDT 9:09 PM MDT
Moon No Moon Rise 9:21 AM MDT (4/19)
Length of Visible Light 14h 25m
Length of Day
13h 27m
Waning Gibbous, 78% of the Moon is Illuminated
Apr 19
Waning Gibbous
Apr 22
Last Quarter
Apr 29
New
May 6
First Quarter
May 14
Full

Hourly Weather History & Observations

Time (MDT) Temp. Windchill Dew Point Humidity Pressure Visibility Wind Dir Wind Speed Gust Speed Precip Events Conditions
12:53 AM 55.9 °F - 42.1 °F 60% 29.80 in 10.0 mi South 19.6 mph 26.5 mph N/A   Clear
1:53 AM 53.1 °F - 42.1 °F 66% 29.81 in 10.0 mi ESE 8.1 mph - N/A   Clear
2:53 AM 53.6 °F - 42.8 °F 67% 29.84 in 10.0 mi SSE 8.1 mph - N/A   Clear
3:53 AM 50.0 °F - 42.1 °F 74% 29.81 in 10.0 mi SSW 3.5 mph - N/A   Clear
4:53 AM 46.9 °F - 41.0 °F 80% 29.81 in 10.0 mi SE 8.1 mph - N/A   Clear
5:53 AM 46.4 °F 43.5 °F 41.0 °F 81% 29.87 in 10.0 mi SE 5.8 mph - N/A   Clear
6:53 AM 44.1 °F 40.1 °F 41.0 °F 89% 29.88 in 9.0 mi NNE 6.9 mph - N/A   Clear
7:53 AM 48.0 °F - 44.1 °F 86% 29.91 in 10.0 mi NNE 10.4 mph - N/A   Clear
8:53 AM 57.0 °F - 45.0 °F 64% 29.91 in 10.0 mi NNE 15.0 mph - N/A   Clear
9:53 AM 59.0 °F - 45.0 °F 60% 29.94 in 10.0 mi NNE 16.1 mph 27.6 mph N/A   Clear
10:53 AM 62.1 °F - 42.1 °F 48% 29.94 in 10.0 mi NNE 20.7 mph 28.8 mph N/A   Clear
11:53 AM 63.0 °F - 41.0 °F 45% 29.98 in 10.0 mi NNE 18.4 mph 24.2 mph N/A   Clear
12:53 PM 66.9 °F - 39.9 °F 37% 29.97 in 10.0 mi NNE 15.0 mph - N/A   Clear
1:53 PM 68.0 °F - 39.9 °F 36% 29.98 in 10.0 mi NE 15.0 mph - N/A   Clear
2:53 PM 68.0 °F - 39.9 °F 36% 29.96 in 10.0 mi NE 16.1 mph - N/A   Clear
3:53 PM 69.1 °F - 39.9 °F 35% 29.95 in 10.0 mi NE 15.0 mph - N/A   Clear
4:53 PM 70.0 °F - 39.9 °F 33% 29.95 in 10.0 mi NE 13.8 mph - N/A   Clear
5:53 PM 66.9 °F - 41.0 °F 39% 29.97 in 10.0 mi ENE 10.4 mph - N/A   Clear
6:53 PM 63.0 °F - 42.1 °F 46% 29.98 in 10.0 mi NE 9.2 mph - N/A   Clear
7:53 PM 55.9 °F - 42.1 °F 60% 29.99 in 10.0 mi NNE 8.1 mph - N/A   Clear
8:53 PM 52.0 °F - 41.0 °F 66% 29.99 in 10.0 mi North 8.1 mph - N/A   Clear
9:53 PM 48.9 °F - 41.0 °F 74% 30.00 in 10.0 mi ESE 9.2 mph - N/A   Clear
10:53 PM 48.0 °F - 41.0 °F 77% 30.00 in 10.0 mi Calm Calm - N/A   Partly Cloudy
11:53 PM 46.9 °F - 41.0 °F 80% 29.99 in 10.0 mi Calm Calm - N/A   Clear